CAPE
0 0 0 0 0 0 0 0 0 0 0 0 0 0 0 0 0 30 48 110 210 333 246 346 457 425 810 956 536 401 247 121 121 115 104 129 136 170 181 155 196 406 392 762
0 0 0 0 0 0 0 0 0 0 0 0 0 0 0 0 14 37 43 61 185 299 290 378 482 353 641 885 777 570 451 316 277 267 204 205 232 296 269 331 485 571 756 426
0 0 0 0 0 0 0 0 0 0 0 0 0 0 65 156 337 142 473 347 325 320 400 413 425 453 547 863 756 778 679 497 412 318 295 309 376 436 515 610 746 670 130 1
0 0 0 0 0 0 0 0 0 0 0 0 0 0 2 301 272 431 596 479 376 355 343 512 452 458 427 487 792 876 661 672 617 560 619 701 743 728 811 588 142 20 0 0
0 0 0 0 0 0 0 0 0 0 0 0 0 0 0 410 385 488 590 631 402 384 404 492 536 509 441 454 541 652 823 916 959 973 982 721 385 223 60 1 0 0 0 0
0 0 0 0 0 0 0 0 0 0 0 0 0 0 0 162 347 552 709 782 729 674 603 546 584 567 604 531 636 689 716 869 774 344 144 63 27 0 0 0 0 0 0 0
0 0 0 0 0 0 0 0 0 0 0 0 0 0 0 0 0 378 529 617 693 771 720 711 687 526 229 373 513 309 299 272 52 37 15 4 0 0 0 0 0 0 0 0
0 0 0 0 0 0 0 0 0 0 0 0 0 0 0 19 78 323 338 509 514 563 561 180 292 339 470 352 5 2 1 0 0 0 0 0 0 0 0 0 0 0 0 0
0 0 0 0 0 0 0 0 0 0 0 0 0 0 24 305 505 507 462 457 482 830 1035 1023 793 479 0 0 0 0 0 0 0 0 0 0 0 0 0 0 0 0 0 0
0 0 0 0 0 0 0 0 0 0 0 0 0 0 0 10 454 568 571 595 775 994 797 364 37 0 0 0 0 0 0 0 0 0 0 0 0 0 0 0 0 0 0 0
0 0 0 0 0 0 0 0 0 0 0 0 0 0 0 0 117 560 798 838 910 838 518 14 0 0 0 0 0 0 0 0 0 0 0 0 0 0 0 0 0 0 0 0
0 0 0 0 0 0 0 0 0 0 0 0 0 0 0 0 11 400 937 881 863 654 71 0 0 0 0 0 0 0 0 0 0 0 0 0 0 0 0 0 0 0 0 0
0 0 0 0 0 0 0 0 0 0 0 0 0 0 0 0 0 171 484 649 472 28 2 8 37 5 5 0 0 0 0 0 0 0 0 0 0 0 0 0 0 0 0 0
0 0 0 0 0 0 0 0 0 0 0 0 0 0 0 18 96 195 221 226 139 37 20 47 90 51 31 3 0 0 0 0 0 0 0 0 0 0 0 0 0 0 0 0
0 0 0 0 0 0 0 0 0 0 0 0 0 0 0 0 58 244 319 259 220 203 131 123 116 50 2 2 2 0 0 0 0 0 0 0 0 0 0 0 0 0 0 0
0 0 0 0 0 0 0 0 0 0 0 0 0 0 0 0 3 78 208 292 278 283 199 197 168 46 4 49 25 0 0 0 0 0 0 0 0 0 0 0 0 0 0 0
0 0 0 0 0 0 0 0 0 0 0 0 0 0 3 0 0 23 116 207 286 304 262 198 149 1 85 27 0 0 0 0 0 0 0 0 0 0 0 0 0 0 0 0
0 0 0 0 0 3 0 0 0 0 0 0 0 0 1 15 6 2 41 155 302 333 326 186 11 72 185 26 4 0 0 0 0 0 0 0 0 0 0 0 0 0 0 0
0 0 0 0 0 0 0 0 0 14 0 0 0 0 32 186 114 88 190 316 398 449 384 37 55 179 215 111 2 0 0 0 0 0 0 0 0 0 0 0 0 0 0 0
0 0 0 0 0 0 0 0 3 36 6 35 62 64 151 256 184 322 425 451 480 485 345 77 205 243 200 108 0 0 0 0 0 0 0 0 0 0 0 0 0 0 0 0
0 0 0 0 0 0 0 10 161 85 0 138 253 169 181 291 235 332 475 499 487 309 174 245 232 249 183 32 0 0 0 0 0 0 0 0 0 0 0 0 0 0 0 0
0 0 0 0 0 0 0 109 159 36 21 81 256 223 214 291 223 285 404 454 277 324 286 238 240 186 40 0 0 0 0 0 0 0 0 0 0 0 0 0 0 0 0 0
3 2 0 0 0 0 117 131 171 130 219 282 279 293 277 246 268 209 207 261 400 402 227 238 150 7 0 0 0 0 0 0 0 0 0 0 0 0 0 0 0 0 0 0
19 80 53 44 0 0 2 204 271 349 358 311 297 270 287 299 303 390 460 459 337 296 159 28 0 0 0 0 0 0 0 0 0 0 0 0 0 0 0 0 0 0 0 0
0 0 0 34 17 202 68 231 367 438 351 376 330 281 295 417 514 448 301 42 6 0 0 0 0 0 0 0 0 0 0 0 0 0 0 0 0 0 0 0 0 0 0 0
0 2 41 0 107 198 154 275 416 471 387 445 433 391 386 491 376 152 60 12 0 0 0 0 0 0 0 0 0 0 0 0 0 0 0 0 0 0 0 0 0 0 0 0
CIN
-0 -0 -0 -0 -0 -0 -0 -0 -0 -0 -0 -0 -0 -0 -0 -0 -0 -259 -129 -144 -446 -49 -523 -119 -81 -625 -473 -407 -500 -471 -429 -343 -296 -226 -157 -134 -107 -105 -102 -85 -47 -22 -11 -0
-0 -0 -0 -0 -0 -0 -0 -0 -0 -0 -0 -0 -0 -0 -0 -96 -407 -272 -227 -312 -419 -123 -53 -104 -69 -597 -477 -348 -347 -371 -332 -190 -144 -103 -143 -125 -90 -74 -80 -57 -20 -0 -0 -14
-0 -0 -0 -0 -0 -0 -0 -0 -0 -0 -0 -0 -0 -0 -288 -433 -502 -475 -560 -557 -525 -297 -77 -98 -69 -522 -485 -344 -300 -274 -225 -153 -113 -80 -161 -75 -86 -34 -44 -13 -0 -3 -106 -23
-0 -0 -0 -0 -0 -0 -0 -0 -0 -0 -0 -0 -0 -0 -42 -330 -381 -449 -509 -507 -511 -363 -173 -50 -46 -38 -71 -447 -275 -212 -169 -115 -88 -85 -135 -71 -22 -23 -1 -10 -131 -239 -0 -0
-0 -0 -0 -0 -0 -0 -0 -0 -0 -0 -0 -0 -0 -0 -0 -234 -248 -279 -311 -414 -370 -326 -166 -94 -39 -64 -102 -256 -322 -272 -196 -157 -114 -74 -46 -64 -110 -115 -184 -86 -0 -0 -0 -0
-0 -0 -0 -0 -0 -0 -0 -0 -0 -0 -0 -0 -0 -0 -0 -129 -167 -120 -160 -149 -113 -74 -62 -71 -74 -81 -95 -224 -288 -236 -178 -150 -129 -202 -244 -256 -245 -0 -0 -0 -0 -0 -0 -0
-0 -0 -0 -0 -0 -0 -0 -0 -0 -0 -0 -0 -0 -0 -0 -0 -0 -185 -152 -180 -161 -127 -108 -102 -120 -120 -165 -431 -276 -360 -359 -351 -430 -412 -383 -130 -0 -0 -0 -0 -0 -0 -0 -0
-0 -0 -0 -0 -0 -0 -0 -0 -0 -0 -0 -0 -0 -0 -0 -216 -140 -324 -260 -170 -188 -482 -434 -318 -184 -198 -338 -376 -72 -72 -74 -0 -0 -0 -0 -0 -0 -0 -0 -0 -0 -0 -0 -0
-0 -0 -0 -0 -0 -0 -0 -0 -0 -0 -0 -0 -0 -0 -197 -368 -419 -361 -280 -173 -406 -283 -236 -204 -231 -318 -0 -0 -0 -0 -0 -0 -0 -0 -0 -0 -0 -0 -0 -0 -0 -0 -0 -0
-0 -0 -0 -0 -0 -0 -0 -0 -0 -0 -0 -0 -0 -0 -0 -91 -335 -358 -271 -149 -285 -233 -280 -366 -584 -0 -0 -0 -0 -0 -0 -0 -0 -0 -0 -0 -0 -0 -0 -0 -0 -0 -0 -0
-0 -0 -0 -0 -0 -0 -0 -0 -0 -0 -0 -0 -0 -0 -0 -0 -290 -314 -220 -228 -260 -299 -291 -203 -0 -0 -0 -0 -0 -0 -0 -0 -0 -0 -0 -0 -0 -0 -0 -0 -0 -0 -0 -0
-0 -0 -0 -0 -0 -0 -0 -0 -0 -0 -0 -0 -0 -0 -0 -0 -109 -209 -163 -217 -261 -279 -354 -0 -0 -0 -0 -0 -0 -0 -0 -0 -0 -0 -0 -0 -0 -0 -0 -0 -0 -0 -0 -0
-0 -0 -0 -0 -0 -0 -0 -0 -0 -0 -0 -0 -0 -0 -0 -0 -0 -192 -219 -259 -338 -66 -20 -24 -38 -545 -67 -0 -0 -0 -0 -0 -0 -0 -0 -0 -0 -0 -0 -0 -0 -0 -0 -0
-0 -0 -0 -0 -0 -0 -0 -0 -0 -0 -0 -0 -0 -0 -0 -137 -72 -47 -42 -38 -44 -24 -24 -15 -19 -39 -39 -32 -0 -0 -0 -0 -0 -0 -0 -0 -0 -0 -0 -0 -0 -0 -0 -0
-0 -0 -0 -0 -0 -0 -0 -0 -0 -0 -0 -0 -0 -0 -0 -0 -158 -61 -50 -68 -65 -36 -35 -22 -37 -46 -25 -61 -75 -0 -0 -0 -0 -0 -0 -0 -0 -0 -0 -0 -0 -0 -0 -0
-0 -0 -0 -0 -0 -0 -0 -0 -0 -0 -0 -0 -0 -0 -0 -0 -91 -154 -98 -66 -82 -49 -40 -39 -28 -58 -33 -107 -93 -0 -0 -0 -0 -0 -0 -0 -0 -0 -0 -0 -0 -0 -0 -0
-0 -0 -0 -0 -0 -0 -0 -0 -0 -0 -0 -0 -0 -0 -181 -0 -0 -199 -140 -137 -117 -80 -62 -45 -58 -39 -111 -150 -18 -0 -0 -0 -0 -0 -0 -0 -0 -0 -0 -0 -0 -0 -0 -0
-0 -0 -0 -0 -0 -4 -0 -8 -0 -0 -0 -0 -0 -0 -222 -438 -197 -202 -196 -182 -137 -114 -72 -69 -143 -139 -81 -169 -214 -0 -0 -0 -0 -0 -0 -0 -0 -0 -0 -0 -0 -0 -0 -0
-0 -0 -0 -0 -0 -0 -0 -0 -9 -90 -0 -0 -0 -0 -540 -393 -382 -304 -149 -77 -87 -61 -53 -131 -81 -67 -62 -93 -40 -0 -0 -0 -0 -0 -0 -0 -0 -0 -0 -0 -0 -0 -0 -0
-0 -0 -0 -0 -0 -0 -0 -0 -84 -82 -72 -263 -360 -319 -445 -315 -224 -198 -142 -111 -107 -81 -47 -87 -69 -71 -73 -87 -45 -0 -0 -0 -0 -0 -0 -0 -0 -0 -0 -0 -0 -0 -0 -0
-0 -0 -0 -0 -0 -0 -0 -101 -154 -40 -0 -254 -274 -248 -354 -220 -141 -127 -177 -146 -114 -99 -77 -76 -87 -80 -60 -132 -0 -0 -0 -0 -0 -0 -0 -0 -0 -0 -0 -0 -0 -0 -0 -0
-0 -0 -0 -0 -0 -0 -0 -168 -65 -98 -70 -296 -177 -285 -245 -157 -110 -267 -185 -145 -124 -88 -96 -101 -71 -52 -126 -0 -0 -0 -0 -0 -0 -0 -0 -0 -0 -0 -0 -0 -0 -0 -0 -0
-0 -1 -0 -0 -0 -0 -76 -85 -69 -51 -245 -183 -134 -208 -152 -291 -217 -45 -31 -114 -79 -75 -123 -82 -106 -141 -0 -0 -0 -0 -0 -0 -0 -0 -0 -0 -0 -0 -0 -0 -0 -0 -0 -0
-1 -66 -29 -23 -0 -0 -32 -66 -21 -240 -104 -138 -87 -118 -112 -75 -121 -139 -85 -83 -52 -44 -73 -122 -0 -0 -0 -0 -0 -0 -0 -0 -0 -0 -0 -0 -0 -0 -0 -0 -0 -0 -0 -0
-0 -0 -0 -45 -196 -71 -198 -41 -71 -136 -111 -80 -79 -71 -47 -164 -127 -119 -127 -76 -109 -0 -0 -0 -0 -0 -0 -0 -0 -0 -0 -0 -0 -0 -0 -0 -0 -0 -0 -0 -0 -0 -0 -0
-0 -0 -3 -0 -103 -25 -50 -109 -93 -145 -272 -105 -65 -62 -115 -67 -99 -13 -15 -45 -0 -0 -0 -0 -0 -0 -0 -0 -0 -0 -0 -0 -0 -0 -0 -0 -0 -0 -0 -0 -0 -0 -0 -0
Wind_Speed
nan nan nan nan nan nan nan nan nan nan nan nan nan nan nan nan nan nan nan 22 19 25 18 22 25 24 26 28 34 40 49 45 38 32 32 33 35 39 40 43 45 45 38 39
nan nan nan nan nan nan nan nan nan nan nan nan nan nan nan nan nan nan nan nan 25 29 24 23 25 30 34 37 39 43 49 46 37 33 35 35 36 39 40 42 43 33 37 40
nan nan nan nan nan nan nan nan nan nan nan nan nan nan nan 21 16 18 14 19 22 31 36 32 28 32 38 41 42 47 45 36 36 36 38 39 40 39 38 36 31 32 36 nan
nan nan nan nan nan nan nan nan nan nan nan nan nan nan nan 20 19 17 13 10 15 22 27 30 34 37 41 41 40 41 34 35 37 39 41 41 40 37 32 33 32 nan nan nan
nan nan nan nan nan nan nan nan nan nan nan nan nan nan nan 24 13 12 15 16 17 19 25 30 32 39 37 38 41 40 35 36 36 38 39 41 40 36 nan nan nan nan nan nan
nan nan nan nan nan nan nan nan nan nan nan nan nan nan nan 19 21 22 19 19 24 23 27 26 27 34 36 36 39 39 39 41 41 42 41 nan nan nan nan nan nan nan nan nan
nan nan nan nan nan nan nan nan nan nan nan nan nan nan nan nan nan 33 33 39 38 31 31 30 31 34 36 41 41 42 44 46 nan nan nan nan nan nan nan nan nan nan nan nan
nan nan nan nan nan nan nan nan nan nan nan nan nan nan nan nan nan 38 44 40 36 36 32 33 32 36 40 45 nan nan nan nan nan nan nan nan nan nan nan nan nan nan nan nan
nan nan nan nan nan nan nan nan nan nan nan nan nan nan nan 36 40 38 34 33 24 23 25 28 32 39 nan nan nan nan nan nan nan nan nan nan nan nan nan nan nan nan nan nan
nan nan nan nan nan nan nan nan nan nan nan nan nan nan nan nan 23 25 24 27 23 21 25 31 nan nan nan nan nan nan nan nan nan nan nan nan nan nan nan nan nan nan nan nan
nan nan nan nan nan nan nan nan nan nan nan nan nan nan nan nan 24 25 23 23 24 25 31 nan nan nan nan nan nan nan nan nan nan nan nan nan nan nan nan nan nan nan nan nan
nan nan nan nan nan nan nan nan nan nan nan nan nan nan nan nan nan 31 31 30 31 33 nan nan nan nan nan nan nan nan nan nan nan nan nan nan nan nan nan nan nan nan nan nan
nan nan nan nan nan nan nan nan nan nan nan nan nan nan nan nan nan 34 35 33 36 nan nan nan nan nan nan nan nan nan nan nan nan nan nan nan nan nan nan nan nan nan nan nan
nan nan nan nan nan nan nan nan nan nan nan nan nan nan nan nan nan 30 29 32 36 nan nan nan nan nan nan nan nan nan nan nan nan nan nan nan nan nan nan nan nan nan nan nan
nan nan nan nan nan nan nan nan nan nan nan nan nan nan nan nan nan 35 35 36 40 43 46 47 43 nan nan nan nan nan nan nan nan nan nan nan nan nan nan nan nan nan nan nan
nan nan nan nan nan nan nan nan nan nan nan nan nan nan nan nan nan nan 35 40 42 41 41 44 37 nan nan nan nan nan nan nan nan nan nan nan nan nan nan nan nan nan nan nan
nan nan nan nan nan nan nan nan nan nan nan nan nan nan nan nan nan nan 35 37 40 37 40 36 40 nan nan nan nan nan nan nan nan nan nan nan nan nan nan nan nan nan nan nan
nan nan nan nan nan nan nan nan nan nan nan nan nan nan nan nan nan nan nan 35 36 34 39 41 nan nan 48 nan nan nan nan nan nan nan nan nan nan nan nan nan nan nan nan nan
nan nan nan nan nan nan nan nan nan nan nan nan nan nan nan 45 42 nan 21 25 33 38 40 nan nan 48 50 54 nan nan nan nan nan nan nan nan nan nan nan nan nan nan nan nan
nan nan nan nan nan nan nan nan nan nan nan nan nan nan 50 49 42 28 36 42 38 46 49 nan 50 51 49 47 nan nan nan nan nan nan nan nan nan nan nan nan nan nan nan nan
nan nan nan nan nan nan nan nan 51 nan nan 31 32 42 51 44 39 44 50 43 45 50 56 56 53 55 47 nan nan nan nan nan nan nan nan nan nan nan nan nan nan nan nan nan
nan nan nan nan nan nan nan 57 53 nan nan nan 38 37 47 57 55 55 54 54 58 61 62 63 70 48 nan nan nan nan nan nan nan nan nan nan nan nan nan nan nan nan nan nan
nan nan nan nan nan nan 52 51 49 52 47 43 48 44 46 54 53 54 56 56 56 59 57 56 48 nan nan nan nan nan nan nan nan nan nan nan nan nan nan nan nan nan nan nan
nan nan nan nan nan nan nan 52 53 51 54 51 45 53 44 49 52 56 56 54 55 51 57 nan nan nan nan nan nan nan nan nan nan nan nan nan nan nan nan nan nan nan nan nan
nan nan nan nan nan 44 nan 48 52 56 57 56 51 47 46 50 51 59 55 nan nan nan nan nan nan nan nan nan nan nan nan nan nan nan nan nan nan nan nan nan nan nan nan nan
nan nan nan nan 37 42 45 54 52 50 50 52 52 49 40 51 57 56 nan nan nan nan nan nan nan nan nan nan nan nan nan nan nan nan nan nan nan nan nan nan nan nan nan nan
Wind_Direction
nan nan nan nan nan nan nan nan nan nan nan nan nan nan nan nan nan nan nan 321 345 328 341 330 324 332 332 323 324 325 327 324 316 318 323 319 319 312 308 306 303 304 306 303
nan nan nan nan nan nan nan nan nan nan nan nan nan nan nan nan nan nan nan nan 322 316 316 310 315 317 313 318 319 315 318 318 317 321 319 316 314 307 305 303 300 302 303 307
nan nan nan nan nan nan nan nan nan nan nan nan nan nan nan 218 226 258 249 246 279 313 319 313 310 313 313 310 312 314 318 316 314 314 309 306 307 303 303 297 301 304 305 nan
nan nan nan nan nan nan nan nan nan nan nan nan nan nan nan 231 240 243 252 284 271 280 284 301 309 311 312 306 309 319 312 311 311 313 310 311 308 306 296 295 299 nan nan nan
nan nan nan nan nan nan nan nan nan nan nan nan nan nan nan 239 248 261 254 279 274 276 287 297 300 305 301 301 309 311 310 309 306 303 305 306 301 301 nan nan nan nan nan nan
nan nan nan nan nan nan nan nan nan nan nan nan nan nan nan 264 285 268 265 285 288 286 288 291 292 295 297 299 302 306 308 310 304 305 303 nan nan nan nan nan nan nan nan nan
nan nan nan nan nan nan nan nan nan nan nan nan nan nan nan nan nan 296 304 294 283 275 283 297 297 289 288 294 303 302 300 308 nan nan nan nan nan nan nan nan nan nan nan nan
nan nan nan nan nan nan nan nan nan nan nan nan nan nan nan nan nan 270 274 278 270 264 270 287 282 281 293 303 nan nan nan nan nan nan nan nan nan nan nan nan nan nan nan nan
nan nan nan nan nan nan nan nan nan nan nan nan nan nan nan 238 248 263 276 279 282 274 282 284 280 287 nan nan nan nan nan nan nan nan nan nan nan nan nan nan nan nan nan nan
nan nan nan nan nan nan nan nan nan nan nan nan nan nan nan nan 267 257 293 281 277 291 280 281 nan nan nan nan nan nan nan nan nan nan nan nan nan nan nan nan nan nan nan nan
nan nan nan nan nan nan nan nan nan nan nan nan nan nan nan nan 285 294 293 291 302 301 303 nan nan nan nan nan nan nan nan nan nan nan nan nan nan nan nan nan nan nan nan nan
nan nan nan nan nan nan nan nan nan nan nan nan nan nan nan nan nan 287 291 300 301 311 nan nan nan nan nan nan nan nan nan nan nan nan nan nan nan nan nan nan nan nan nan nan
nan nan nan nan nan nan nan nan nan nan nan nan nan nan nan nan nan 286 292 294 298 nan nan nan nan nan nan nan nan nan nan nan nan nan nan nan nan nan nan nan nan nan nan nan
nan nan nan nan nan nan nan nan nan nan nan nan nan nan nan nan nan 287 301 310 309 nan nan nan nan nan nan nan nan nan nan nan nan nan nan nan nan nan nan nan nan nan nan nan
nan nan nan nan nan nan nan nan nan nan nan nan nan nan nan nan nan 306 313 295 299 303 305 308 320 nan nan nan nan nan nan nan nan nan nan nan nan nan nan nan nan nan nan nan
nan nan nan nan nan nan nan nan nan nan nan nan nan nan nan nan nan nan 299 301 301 308 308 311 312 nan nan nan nan nan nan nan nan nan nan nan nan nan nan nan nan nan nan nan
nan nan nan nan nan nan nan nan nan nan nan nan nan nan nan nan nan nan 300 307 309 313 307 311 312 nan nan nan nan nan nan nan nan nan nan nan nan nan nan nan nan nan nan nan
nan nan nan nan nan nan nan nan nan nan nan nan nan nan nan nan nan nan nan 299 300 305 308 309 nan nan 305 nan nan nan nan nan nan nan nan nan nan nan nan nan nan nan nan nan
nan nan nan nan nan nan nan nan nan nan nan nan nan nan nan 267 263 nan 289 307 300 298 296 nan nan 301 306 310 nan nan nan nan nan nan nan nan nan nan nan nan nan nan nan nan
nan nan nan nan nan nan nan nan nan nan nan nan nan nan 272 272 267 268 286 286 277 273 281 nan 297 297 304 313 nan nan nan nan nan nan nan nan nan nan nan nan nan nan nan nan
nan nan nan nan nan nan nan nan 242 nan nan 263 272 270 273 269 260 265 276 270 275 276 283 288 289 295 294 nan nan nan nan nan nan nan nan nan nan nan nan nan nan nan nan nan
nan nan nan nan nan nan nan 251 258 nan nan nan 268 271 263 260 261 264 270 276 281 285 289 293 298 283 nan nan nan nan nan nan nan nan nan nan nan nan nan nan nan nan nan nan
nan nan nan nan nan nan 243 251 250 256 256 250 263 266 277 264 261 261 263 269 276 279 284 280 294 nan nan nan nan nan nan nan nan nan nan nan nan nan nan nan nan nan nan nan
nan nan nan nan nan nan nan 240 248 253 256 257 262 276 275 268 264 265 265 267 267 271 278 nan nan nan nan nan nan nan nan nan nan nan nan nan nan nan nan nan nan nan nan nan
nan nan nan nan nan 229 nan 233 239 249 254 258 260 266 272 272 269 270 270 nan nan nan nan nan nan nan nan nan nan nan nan nan nan nan nan nan nan nan nan nan nan nan nan nan
nan nan nan nan 232 221 224 224 232 248 258 264 265 272 276 279 266 267 nan nan nan nan nan nan nan nan nan nan nan nan nan nan nan nan nan nan nan nan nan nan nan nan nan nan